Weather observations for the past three days for
John Glenn Columbus International Airport
Imperial (Metric)
Date Time (edt) Wind (mph) Vis. (mi.) Weather Sky Cond. Temperature (ºF) Relative Humidity Wind Chill (°F) Heat Index (°F) Pressure Precipitation (in)
Air Dwpt 6 hour altimeter (in) sea level (mb) 1 hr 3 hr 6 hr
Max. Min.
13 13:51 Vrbl 3 10.00 Mostly Cloudy BKN050 BKN250 89.1 66.9 91.9 73.9 48% 92 30.15 1020.3
13 12:51 N 5 10.00 Mostly Cloudy BKN050 BKN250 89.1 66 47% 92 30.16 1020.6
13 11:51 Vrbl 3 10.00 Mostly Cloudy BKN050 BKN250 87.1 66 50% 89 30.17 1020.9
13 10:51 Calm 10.00 A Few Clouds FEW050 FEW100 FEW250 86 68 55% 89 30.18 1021.1
13 09:51 N 5 10.00 A Few Clouds FEW080 FEW250 84 69.1 61% 88 30.19 1021.4
13 08:51 Calm 10.00 A Few Clouds FEW080 FEW250 78.1 68 71% 80 30.18 1021.4
13 07:51 Calm 10.00 A Few Clouds FEW080 FEW250 73.9 68 73.9 68 82% 30.18 1021.1
13 06:51 Calm 8.00 A Few Clouds FEW080 FEW250 69.1 66.9 93% 30.17 1020.8
13 05:51 Calm 10.00 A Few Clouds FEW080 FEW250 70 66.9 90% 30.15 1020.3
13 04:51 N 3 10.00 Fair CLR 70 66.9 90% 30.14 1019.9
13 03:51 N 3 10.00 Fair CLR 72 68 87% 30.13 1019.4
13 02:51 E 3 10.00 A Few Clouds FEW250 72 68 87% 30.12 1019.2
13 01:51 Calm 10.00 A Few Clouds FEW060 73 69.1 82.9 73 87% 30.14 1019.7
13 00:51 NE 3 10.00 Partly Cloudy SCT070 73.9 69.1 85% 30.14 1019.7
12 23:51 Calm 10.00 A Few Clouds FEW100 73.9 69.1 85% 30.13 1019.7
12 22:51 E 3 10.00 A Few Clouds FEW110 75.9 69.1 79% 77 30.12 1019.3
12 21:51 E 3 10.00 Mostly Cloudy SCT110 BKN250 77 70 79% 79 30.12 1019.1
12 20:51 E 6 10.00 Mostly Cloudy FEW080 SCT110 BKN250 80.1 69.1 69% 83 30.11 1018.8
12 19:51 E 5 10.00 Mostly Cloudy BKN085 BKN110 82 69.1 91 82 65% 85 30.1 1018.6
12 18:51 NE 7 10.00 Mostly Cloudy BKN060 BKN080 87.1 69.1 55% 91 30.09 1018.2
12 17:51 NW 8 10.00 Mostly Cloudy SCT055 BKN095 BKN250 87.1 66.9 51% 90 30.08 1017.9
12 16:51 Vrbl 6 10.00 Mostly Cloudy SCT055 BKN095 BKN250 90 66 45% 93 30.08 1017.8
12 15:51 SW 9 10.00 Partly Cloudy FEW055 SCT095 SCT250 90 63 41% 91 30.09 1018.1
12 14:51 S 12 10.00 Partly Cloudy SCT055 90 64.9 44% 92 30.11 1018.7
12 13:51 SE 7 10.00 Partly Cloudy SCT050 89.1 64.9 90 73.9 45% 91 30.12 1019.1
12 12:51 S 10 10.00 Partly Cloudy SCT050 SCT130 87.1 64 46% 88 30.14 1019.8
12 11:51 E 7 10.00 Partly Cloudy FEW049 SCT065 SCT130 84 64 51% 85 30.14 1020.0
12 10:51 SE 10 10.00 A Few Clouds FEW130 82.9 64 53% 84 30.14 1019.9
12 09:51 S 7 10.00 A Few Clouds FEW060 79 64 60% 81 30.13 1019.7
12 08:51 S 6 10.00 A Few Clouds FEW075 FEW120 75.9 63 64% 78 30.13 1019.6
12 07:51 SE 6 10.00 Mostly Cloudy BKN070 BKN110 73.9 63 73.9 69.1 69% 30.12 1019.3
12 06:51 E 5 10.00 Mostly Cloudy BKN065 BKN110 71.1 63 76% 30.11 1018.9
12 05:51 E 7 10.00 Mostly Cloudy FEW050 BKN110 70 63 79% 30.09 1018.4
12 04:51 E 7 10.00 Partly Cloudy SCT110 71.1 63 76% 30.08 1017.9
12 03:51 E 7 10.00 Partly Cloudy SCT120 70 63 79% 30.08 1017.9
12 02:51 Calm 10.00 Fair CLR 70 63 79% 30.09 1018.2
12 01:51 Calm 10.00 Fair CLR 71.1 63 81 70 76% 30.1 1018.5
12 00:51 E 5 10.00 Fair CLR 71.1 63 76% 30.09 1018.4
11 23:51 NE 3 10.00 Fair CLR 72 63 73% 30.09 1018.3
11 22:51 E 3 10.00 A Few Clouds FEW050 75 63 66% 77 30.08 1018.0
11 21:51 NE 6 10.00 A Few Clouds FEW055 75 63 66% 77 30.07 1017.5
11 20:51 NE 3 10.00 Partly Cloudy SCT060 79 62.1 56% 80 30.07 1017.6
11 19:51 NE 6 10.00 Mostly Cloudy FEW060 BKN070 81 62.1 88 81 53% 82 30.07 1017.5
11 18:51 E 7 10.00 Mostly Cloudy BKN060 82 62.1 51% 83 30.05 1017.1
11 17:51 NE 7 10.00 Mostly Cloudy BKN065 82.9 61 48% 83 30.04 1016.7
11 16:51 Vrbl 6 10.00 Partly Cloudy SCT070 84.9 60.1 43% 85 30.05 1016.8
11 15:51 Calm 10.00 Partly Cloudy SCT060 86 60.1 42% 86 30.05 1017.1
11 14:51 Vrbl 7 10.00 Partly Cloudy SCT055 84.9 59 42% 85 30.06 1017.3
11 13:51 W 7 G 17 10.00 A Few Clouds FEW055 84.9 57 86 66.9 39% 84 30.07 1017.4
11 12:51 Vrbl 3 10.00 A Few Clouds FEW050 82.9 59 44% 83 30.08 1018.0
11 11:51 Vrbl 7 10.00 A Few Clouds FEW042 81 60.1 49% 82 30.08 1018.0
11 10:51 NW 6 10.00 Fair CLR 79 61 54% 80 30.08 1017.8
11 09:51 Calm 10.00 Fair CLR 75.9 62.1 62% 78 30.08 1017.8
11 08:51 Calm 10.00 Fair CLR 71.1 62.1 73% 30.08 1018.0
11 07:51 Calm 10.00 Fair CLR 66.9 61 68 61 81% 30.06 1017.5
11 06:51 Calm 10.00 Fair CLR 63 61 93% 30.04 1016.9
11 05:51 Calm 10.00 A Few Clouds FEW250 62.1 60.1 93% 30.03 1016.4
11 04:51 Calm 10.00 Partly Cloudy SCT033 64.9 59 81% 30.01 1015.9
11 03:51 W 5 10.00 Partly Cloudy SCT033 64.9 59 81% 30 1015.4
11 02:51 W 3 10.00 Mostly Cloudy BKN034 66.9 60.1 79% 29.99 1015.2
11 01:51 W 5 10.00 Mostly Cloudy BKN036 68 60.1 73 66.9 76% 29.99 1015.1
11 00:51 W 6 10.00 A Few Clouds FEW042 66.9 60.1 79% 29.98 1014.8
10 23:51 W 7 10.00 A Few Clouds FEW050 68 61 78% 29.97 1014.2
10 22:51 W 9 10.00 Partly Cloudy SCT050 71.1 61 71% 29.95 1013.8
10 21:51 W 8 10.00 Mostly Cloudy BKN050 72 61 68% 29.94 1013.2
10 20:51 W 10 10.00 Overcast OVC050 73 60.1 64% 29.92 1012.5
10 19:51 W 14 G 24 10.00 Overcast BKN034 OVC045 73 62.1 75 68 69% 29.9 1011.8
10 18:51 W 16 10.00 Overcast BKN028 OVC036 71.1 62.1 73% 29.88 1011.4
10 17:51 W 20 G 31 10.00 Overcast FEW022 BKN027 OVC046 71.1 62.1 73% 29.85 1010.3
10 16:51 W 23 G 36 10.00 Overcast and Breezy OVC026 71.1 61 71% 29.82 1009.2
10 15:51 W 22 G 32 10.00 Overcast and Breezy BKN021 OVC029 72 63 73% 29.78 1007.9
10 14:51 SW 16 G 24 5.00 Light Rain Fog/Mist FEW011 OVC018 69.1 66.9 93% 29.76 1007.0
Date Time (edt) Wind (mph) Vis. (mi.) Weather Sky Cond. Air Dwpt Max. Min. Relative Humidity Wind Chill (°F) Heat Index (°F) altimeter (in) sea level (mb) 1 hr 3 hr 6 hr
6 hour
Temperature (ºF) Pressure Precipitation (in)